Location: Ariel
(45.9570°N, 122.5700°W)
Time: 15:07:30
(UTC-07:00)

Transit 2A Rocket - Pass Details

Date: 24 July 2019
Orbit: 590 x 913 km, 66.7° (Epoch: 21 August)

Event Time Altitude Azimuth Distance (km) Brightness Sun altitude
Exits shadow 02:53:47 28° 160° (SSE) 1,604 6.3 -20.6°
Maximum altitude 02:56:11 40° 114° (ESE) 1,264 6.1 -20.4°
Drops below altitude 10° 03:01:26 10° 46° (NE) 2,444 8.6 -20.0°
Sets 03:03:56 0° 40° (NE) 3,333 9.8 -19.8°
